| time (UTC) | temp C | wind direction | speed KPH | gust KPH | rain 1hr cm | rain 24hr cm | rain mn cm | humidity % | barometer mb |
| 20260510202055 | 27 | 184 | 3.2 | 16.1 | 0.00 | 0.30 | 0.03 | 72 | 1014.6 |
| 20260510201601 | 27 | 167 | 6.4 | 19.3 | 0.00 | 0.30 | 0.03 | 72 | 1014.5 |
| 20260510201051 | 27 | 136 | 8.0 | 20.9 | 0.00 | 0.30 | 0.03 | 71 | 1014.5 |
| 20260510200551 | 27 | 140 | 9.7 | 20.9 | 0.00 | 0.30 | 0.03 | 71 | 1014.4 |
| 20260510200053 | 28 | 151 | 9.7 | 16.1 | 0.00 | 0.30 | 0.03 | 70 | 1014.4 |
| 20260510195555 | 27 | 132 | 6.4 | 16.1 | 0.00 | 0.56 | 0.03 | 72 | 1014.5 |
| 20260510195050 | 27 | 166 | 6.4 | 17.7 | 0.00 | 0.56 | 0.03 | 73 | 1014.5 |
| 20260510194604 | 27 | 192 | 6.4 | 17.7 | 0.00 | 0.56 | 0.03 | 74 | 1014.5 |
| 20260510194052 | 27 | 144 | 6.4 | 19.3 | 0.00 | 0.56 | 0.03 | 75 | 1014.6 |
| 20260510193552 | 27 | 155 | 6.4 | 19.3 | 0.00 | 0.56 | 0.03 | 75 | 1014.6 |
| 20260510193053 | 27 | 148 | 3.2 | 14.5 | 0.00 | 0.56 | 0.03 | 76 | 1014.6 |
| 20260510192550 | 27 | 134 | 6.4 | 14.5 | 0.00 | 0.56 | 0.03 | 75 | 1014.7 |
| 20260510192052 | 27 | 173 | 4.8 | 14.5 | 0.00 | 0.56 | 0.03 | 76 | 1014.7 |
| 20260510191605 | 27 | 109 | 6.4 | 19.3 | 0.00 | 0.56 | 0.03 | 75 | 1014.7 |
| 20260510191053 | 27 | 171 | 8.0 | 19.3 | 0.00 | 0.56 | 0.03 | 74 | 1014.7 |
| 20260510190556 | 27 | 191 | 4.8 | 14.5 | 0.00 | 0.56 | 0.03 | 75 | 1014.7 |
| 20260510190107 | 27 | 117 | 6.4 | 14.5 | 0.00 | 0.56 | 0.03 | 75 | 1014.7 |
| 20260510185553 | 27 | 132 | 4.8 | 17.7 | 0.00 | 0.79 | 0.03 | 74 | 1014.7 |
| 20260510185053 | 27 | 136 | 6.4 | 17.7 | 0.00 | 0.79 | 0.03 | 75 | 1014.7 |
| 20260510184556 | 27 | 84 | 6.4 | 17.7 | 0.00 | 0.79 | 0.03 | 73 | 1014.7 |
| 20260510184053 | 27 | 190 | 4.8 | 24.1 | 0.00 | 0.79 | 0.03 | 75 | 1014.7 |
| 20260510183553 | 27 | 134 | 9.7 | 24.1 | 0.00 | 0.79 | 0.03 | 74 | 1014.8 |
| 20260510183057 | 27 | 113 | 4.8 | 19.3 | 0.00 | 0.79 | 0.03 | 73 | 1014.9 |
| 20260510182552 | 27 | 109 | 8.0 | 17.7 | 0.00 | 0.79 | 0.03 | 73 | 1015.0 |
| 20260510182052 | 27 | 145 | 3.2 | 12.9 | 0.00 | 0.79 | 0.03 | 72 | 1015.1 |
| 20260510181557 | 27 | 96 | 4.8 | 11.3 | 0.00 | 0.79 | 0.03 | 73 | 1015.2 |
| 20260510181053 | 27 | 149 | 3.2 | 14.5 | 0.00 | 0.79 | 0.03 | 74 | 1015.3 |
| 20260510180553 | 27 | 15 | 3.2 | 14.5 | 0.00 | 0.79 | 0.03 | 73 | 1015.5 |
| 20260510180432 | 27 | 98 | 3.2 | 16.1 | 0.00 | 0.79 | 0.03 | 73 | 1015.7 |
| 20260510175553 | 27 | 157 | 3.2 | 16.1 | 0.00 | 1.32 | 0.03 | 75 | 1015.7 |
| 20260510175052 | 27 | 74 | 8.0 | 17.7 | 0.00 | 1.32 | 0.03 | 75 | 1015.8 |
| 20260510174553 | 27 | 101 | 6.4 | 17.7 | 0.00 | 1.32 | 0.03 | 76 | 1015.8 |
| 20260510174054 | 26 | 184 | 8.0 | 17.7 | 0.00 | 1.32 | 0.03 | 76 | 1015.8 |
| 20260510173558 | 27 | 186 | 4.8 | 17.7 | 0.00 | 1.32 | 0.03 | 77 | 1015.8 |
| 20260510173053 | 27 | 138 | 1.6 | 14.5 | 0.00 | 1.32 | 0.03 | 77 | 1015.8 |
| 20260510172553 | 27 | 117 | 3.2 | 14.5 | 0.00 | 1.32 | 0.03 | 78 | 1015.8 |
| 20260510172054 | 27 | 155 | 6.4 | 14.5 | 0.00 | 1.32 | 0.03 | 75 | 1015.9 |
| 20260510171556 | 27 | 147 | 4.8 | 19.3 | 0.00 | 1.32 | 0.03 | 77 | 1016.0 |
| 20260510171052 | 27 | 113 | 3.2 | 19.3 | 0.00 | 1.32 | 0.03 | 78 | 1016.1 |
| 20260510170552 | 26 | 65 | 3.2 | 14.5 | 0.00 | 1.32 | 0.03 | 79 | 1016.1 |
| 20260510170052 | 26 | 0 | 4.8 | 14.5 | 0.00 | 1.32 | 0.03 | 79 | 1016.3 |
| 20260510165553 | 26 | 117 | 4.8 | 14.5 | 0.00 | 2.21 | 0.03 | 79 | 1016.3 |
| 20260510165052 | 26 | 61 | 1.6 | 14.5 | 0.00 | 2.21 | 0.03 | 79 | 1016.2 |
| 20260510164554 | 26 | 75 | 3.2 | 14.5 | 0.00 | 2.21 | 0.03 | 79 | 1016.2 |
| 20260510164052 | 26 | 56 | 3.2 | 14.5 | 0.00 | 2.21 | 0.03 | 78 | 1016.2 |
| 20260510163552 | 26 | 140 | 3.2 | 12.9 | 0.00 | 2.21 | 0.03 | 76 | 1016.2 |
| 20260510163056 | 26 | 136 | 3.2 | 12.9 | 0.00 | 2.21 | 0.03 | 78 | 1016.2 |
| 20260510162552 | 26 | 62 | 3.2 | 12.9 | 0.00 | 2.21 | 0.03 | 79 | 1016.2 |
| 20260510162053 | 26 | 166 | 3.2 | 11.3 | 0.00 | 2.21 | 0.03 | 77 | 1016.3 |
| 20260510161600 | 26 | 121 | 4.8 | 14.5 | 0.00 | 2.21 | 0.03 | 78 | 1016.3 |
| 20260510161053 | 26 | 179 | 4.8 | 16.1 | 0.00 | 2.21 | 0.03 | 79 | 1016.4 |
| 20260510160554 | 25 | 107 | 3.2 | 16.1 | 0.00 | 2.21 | 0.03 | 80 | 1016.2 |
| 20260510160132 | 25 | 87 | 6.4 | 14.5 | 0.00 | 2.21 | 0.03 | 79 | 1016.1 |
| 20260510155552 | 25 | 136 | 0.0 | 14.5 | 0.00 | 2.77 | 0.03 | 83 | 1016.0 |
| 20260510155053 | 25 | 63 | 3.2 | 16.1 | 0.00 | 2.77 | 0.03 | 82 | 1015.9 |
| 20260510154557 | 25 | 117 | 8.0 | 16.1 | 0.00 | 2.77 | 0.03 | 81 | 1015.9 |
| 20260510154052 | 25 | 125 | 4.8 | 14.5 | 0.00 | 2.77 | 0.03 | 81 | 1015.9 |
| 20260510153552 | 25 | 171 | 4.8 | 14.5 | 0.00 | 2.77 | 0.03 | 82 | 1015.9 |
| 20260510153055 | 25 | 0 | 1.6 | 14.5 | 0.00 | 2.77 | 0.03 | 82 | 1016.0 |
| 20260510152553 | 25 | 116 | 3.2 | 12.9 | 0.00 | 2.77 | 0.03 | 84 | 1016.1 |
| 20260510152053 | 24 | 123 | 1.6 | 14.5 | 0.00 | 2.77 | 0.03 | 85 | 1016.1 |
| 20260510151558 | 24 | 131 | 4.8 | 14.5 | 0.00 | 2.77 | 0.03 | 87 | 1016.1 |
| 20260510151053 | 23 | 64 | 0.0 | 9.7 | 0.00 | 2.77 | 0.03 | 88 | 1016.1 |
| 20260510150553 | 23 | 31 | 3.2 | 9.7 | 0.00 | 2.77 | 0.03 | 87 | 1016.2 |
| 20260510150057 | 23 | 78 | 1.6 | 11.3 | 0.00 | 2.77 | 0.03 | 87 | 1016.3 |
| 20260510145556 | 23 | 70 | 1.6 | 12.9 | 0.00 | 2.90 | 0.03 | 87 | 1016.3 |
| 20260510145053 | 23 | 30 | 4.8 | 12.9 | 0.00 | 2.90 | 0.03 | 88 | 1016.3 |
| 20260510144610 | 23 | 65 | 3.2 | 11.3 | 0.00 | 2.90 | 0.03 | 90 | 1016.4 |
| 20260510144053 | 23 | 0 | 1.6 | 11.3 | 0.00 | 2.90 | 0.03 | 91 | 1016.4 |
| 20260510143553 | 23 | 86 | 1.6 | 19.3 | 0.00 | 2.90 | 0.03 | 93 | 1016.2 |
| 20260510143056 | 22 | 165 | 6.4 | 19.3 | 0.00 | 2.90 | 0.03 | 94 | 1016.1 |
| 20260510142552 | 22 | 115 | 4.8 | 14.5 | 0.00 | 2.90 | 0.03 | 95 | 1016.1 |
| 20260510142053 | 22 | 350 | 3.2 | 11.3 | 0.00 | 2.90 | 0.03 | 96 | 1016.2 |
| 20260510141557 | 22 | 39 | 1.6 | 12.9 | 0.00 | 2.90 | 0.03 | 97 | 1016.1 |
| 20260510141053 | 22 | 26 | 3.2 | 16.1 | 0.00 | 2.90 | 0.03 | 98 | 1016.1 |
| 20260510140552 | 21 | 98 | 3.2 | 16.1 | 0.00 | 2.90 | 0.03 | 98 | 1016.0 |
| 20260510135553 | 21 | 30 | 3.2 | 9.7 | 0.00 | 4.80 | 0.03 | 98 | 1016.0 |
| 20260510135055 | 21 | 0 | 1.6 | 6.4 | 0.00 | 4.80 | 0.03 | 98 | 1016.1 |
| 20260510134605 | 21 | 101 | 3.2 | 6.4 | 0.00 | 4.80 | 0.03 | 98 | 1016.0 |
| 20260510134053 | 21 | 62 | 1.6 | 6.4 | 0.00 | 4.80 | 0.03 | 98 | 1016.1 |
| 20260510133552 | 21 | 99 | 0.0 | 6.4 | 0.00 | 4.80 | 0.03 | 98 | 1016.1 |
| 20260510133054 | 20 | 25 | 0.0 | 6.4 | 0.00 | 4.80 | 0.03 | 98 | 1016.0 |
| 20260510132553 | 20 | 19 | 1.6 | 6.4 | 0.00 | 4.80 | 0.03 | 98 | 1016.0 |
| 20260510132053 | 20 | 60 | 1.6 | 6.4 | 0.00 | 4.80 | 0.03 | 98 | 1015.8 |
| 20260510131554 | 20 | 0 | 0.0 | 4.8 | 0.00 | 4.80 | 0.03 | 98 | 1015.7 |
| 20260510131052 | 20 | 126 | 0.0 | 4.8 | 0.00 | 4.80 | 0.03 | 98 | 1015.7 |
| 20260510130554 | 20 | 154 | 0.0 | 6.4 | 0.00 | 4.80 | 0.03 | 98 | 1015.6 |
| 20260510130056 | 20 | 21 | 1.6 | 8.0 | 0.00 | 4.80 | 0.03 | 98 | 1015.4 |
| 20260510125554 | 20 | 38 | 1.6 | 8.0 | 0.00 | 4.80 | 0.03 | 98 | 1015.4 |
| 20260510125053 | 20 | 41 | 1.6 | 6.4 | 0.00 | 4.80 | 0.03 | 98 | 1015.3 |
| 20260510124554 | 20 | 49 | 1.6 | 6.4 | 0.00 | 4.80 | 0.03 | 98 | 1015.3 |
| 20260510124052 | 20 | 40 | 3.2 | 6.4 | 0.00 | 4.80 | 0.03 | 98 | 1015.1 |
| 20260510123552 | 20 | 44 | 1.6 | 6.4 | 0.00 | 4.80 | 0.03 | 98 | 1015.0 |
| 20260510123053 | 20 | 51 | 1.6 | 4.8 | 0.00 | 4.80 | 0.03 | 98 | 1014.8 |
| 20260510122553 | 20 | 0 | 0.0 | 3.2 | 0.00 | 4.80 | 0.03 | 98 | 1014.8 |
| 20260510122053 | 20 | 0 | 0.0 | 3.2 | 0.00 | 4.80 | 0.03 | 98 | 1014.7 |
| 20260510121553 | 20 | 0 | 0.0 | 3.2 | 0.00 | 4.80 | 0.03 | 98 | 1014.7 |
| 20260510121052 | 20 | 121 | 0.0 | 4.8 | 0.00 | 4.80 | 0.03 | 98 | 1014.6 |
| 20260510120553 | 20 | 121 | 0.0 | 4.8 | 0.00 | 4.80 | 0.03 | 98 | 1014.6 |
| 20260510120053 | 20 | 0 | 0.0 | 4.8 | 0.00 | 4.80 | 0.03 | 98 | 1014.6 |
| 20260510115552 | 20 | 0 | 0.0 | 4.8 | 0.00 | 4.80 | 0.03 | 98 | 1014.5 |
| 20260510115053 | 19 | 107 | 0.0 | 3.2 | 0.00 | 4.80 | 0.03 | 98 | 1014.3 |
| 20260510114553 | 19 | 88 | 0.0 | 4.8 | 0.00 | 4.80 | 0.03 | 98 | 1014.3 |
| 20260510114053 | 19 | 0 | 0.0 | 6.4 | 0.00 | 4.80 | 0.03 | 98 | 1014.3 |
| 20260510113552 | 19 | 0 | 1.6 | 6.4 | 0.00 | 4.80 | 0.03 | 98 | 1014.1 |
| 20260510113051 | 19 | 98 | 0.0 | 12.9 | 0.00 | 4.80 | 0.03 | 98 | 1013.9 |
| 20260510112552 | 19 | 130 | 1.6 | 12.9 | 0.00 | 4.80 | 0.03 | 98 | 1013.9 |
| 20260510112055 | 19 | 0 | 3.2 | 12.9 | 0.00 | 4.80 | 0.03 | 98 | 1013.8 |
| 20260510111607 | 19 | 96 | 1.6 | 6.4 | 0.00 | 4.80 | 0.03 | 98 | 1013.8 |
| 20260510111052 | 19 | 117 | 3.2 | 11.3 | 0.00 | 4.80 | 0.03 | 98 | 1013.8 |
| 20260510110555 | 19 | 105 | 1.6 | 11.3 | 0.00 | 4.80 | 0.03 | 97 | 1013.8 |
| 20260510110054 | 19 | 109 | 1.6 | 9.7 | 0.00 | 4.80 | 0.03 | 97 | 1013.5 |
| 20260510105552 | 19 | 0 | 1.6 | 9.7 | 0.00 | 4.80 | 0.03 | 98 | 1013.6 |
| 20260510105052 | 19 | 117 | 0.0 | 9.7 | 0.00 | 4.80 | 0.03 | 98 | 1013.5 |
| 20260510104552 | 19 | 140 | 3.2 | 9.7 | 0.00 | 4.80 | 0.03 | 97 | 1013.4 |
| 20260510104051 | 19 | 123 | 3.2 | 9.7 | 0.00 | 4.80 | 0.03 | 97 | 1013.3 |
| 20260510103554 | 19 | 127 | 0.0 | 4.8 | 0.00 | 4.80 | 0.03 | 97 | 1013.1 |
| 20260510103052 | 19 | 124 | 1.6 | 6.4 | 0.00 | 4.80 | 0.03 | 98 | 1013.0 |
| 20260510102553 | 19 | 0 | 0.0 | 6.4 | 0.00 | 4.80 | 0.03 | 98 | 1013.0 |
| 20260510102053 | 19 | 113 | 0.0 | 4.8 | 0.00 | 4.80 | 0.03 | 98 | 1012.9 |
| 20260510101553 | 19 | 0 | 0.0 | 3.2 | 0.00 | 4.80 | 0.03 | 98 | 1012.8 |
| 20260510101055 | 19 | 0 | 0.0 | 3.2 | 0.00 | 4.80 | 0.03 | 98 | 1012.7 |
| 20260510100553 | 19 | 0 | 0.0 | 3.2 | 0.03 | 4.80 | 0.03 | 98 | 1012.6 |
| 20260510100053 | 19 | 0 | 0.0 | 1.6 | 0.03 | 4.80 | 0.03 | 98 | 1012.6 |
| 20260510095550 | 19 | 0 | 0.0 | 3.2 | 0.03 | 4.80 | 0.03 | 98 | 1012.6 |
| 20260510095050 | 19 | 0 | 0.0 | 3.2 | 0.03 | 4.80 | 0.03 | 98 | 1012.5 |
| 20260510094556 | 19 | 0 | 0.0 | 4.8 | 0.03 | 4.80 | 0.03 | 98 | 1012.6 |
| 20260510094051 | 19 | 0 | 0.0 | 4.8 | 0.03 | 4.80 | 0.03 | 98 | 1012.7 |
| 20260510093551 | 19 | 0 | 0.0 | 3.2 | 0.03 | 4.80 | 0.03 | 98 | 1012.8 |
| 20260510093104 | 19 | 0 | 0.0 | 3.2 | 0.03 | 4.80 | 0.03 | 97 | 1012.6 |
| 20260510092552 | 19 | 0 | 1.6 | 3.2 | 0.03 | 4.80 | 0.03 | 98 | 1012.6 |
| 20260510092051 | 19 | 0 | 0.0 | 3.2 | 0.03 | 4.80 | 0.03 | 97 | 1012.5 |
| 20260510091553 | 19 | 0 | 0.0 | 3.2 | 0.03 | 4.80 | 0.03 | 97 | 1012.4 |
| 20260510091052 | 19 | 0 | 0.0 | 6.4 | 0.03 | 4.80 | 0.03 | 97 | 1012.4 |
| 20260510090551 | 19 | 53 | 0.0 | 6.4 | 0.00 | 4.78 | 0.00 | 97 | 1012.3 |
| 20260510090104 | 19 | 55 | 1.6 | 6.4 | 0.00 | 4.78 | 0.00 | 97 | 1012.3 |
| 20260510085551 | 19 | 54 | 1.6 | 4.8 | 0.00 | 4.78 | 0.00 | 97 | 1012.4 |
| 20260510085051 | 19 | 62 | 1.6 | 3.2 | 0.00 | 4.78 | 0.00 | 98 | 1012.4 |
| 20260510084552 | 19 | 0 | 0.0 | 3.2 | 0.00 | 4.78 | 0.00 | 98 | 1012.4 |
| 20260510084051 | 19 | 43 | 0.0 | 4.8 | 0.00 | 4.78 | 0.00 | 97 | 1012.4 |
| 20260510083553 | 20 | 43 | 0.0 | 8.0 | 0.00 | 4.78 | 0.00 | 98 | 1012.4 |
| 20260510083105 | 20 | 50 | 1.6 | 8.0 | 0.00 | 4.78 | 0.00 | 98 | 1012.3 |
| 20260510082551 | 19 | 39 | 3.2 | 6.4 | 0.00 | 4.78 | 0.00 | 98 | 1012.4 |
| 20260510082051 | 19 | 45 | 1.6 | 6.4 | 0.00 | 4.78 | 0.00 | 98 | 1012.4 |
| 20260510081608 | 19 | 0 | 0.0 | 3.2 | 0.00 | 4.78 | 0.00 | 98 | 1012.3 |
| 20260510081051 | 18 | 0 | 0.0 | 1.6 | 0.00 | 4.78 | 0.00 | 97 | 1012.3 |
| 20260510080550 | 18 | 0 | 0.0 | 1.6 | 0.00 | 4.78 | 0.00 | 98 | 1012.2 |
| 20260510080056 | 18 | 0 | 0.0 | 1.6 | 0.00 | 4.78 | 0.00 | 97 | 1012.1 |
| 20260510075550 | 18 | 0 | 0.0 | 1.6 | 0.00 | 4.78 | 0.00 | 97 | 1012.1 |
| 20260510075050 | 18 | 0 | 0.0 | 0.0 | 0.00 | 4.78 | 0.00 | 97 | 1012.1 |
| 20260510074558 | 18 | 0 | 0.0 | 1.6 | 0.00 | 4.78 | 0.00 | 97 | 1012.1 |
| 20260510074054 | 18 | 0 | 0.0 | 3.2 | 0.00 | 4.78 | 0.00 | 97 | 1012.1 |
| 20260510073551 | 18 | 69 | 0.0 | 3.2 | 0.00 | 4.78 | 0.00 | 97 | 1012.1 |
| 20260510073054 | 18 | 69 | 0.0 | 1.6 | 0.00 | 4.78 | 0.00 | 97 | 1012.0 |
| 20260510072551 | 18 | 0 | 0.0 | 1.6 | 0.00 | 4.78 | 0.00 | 97 | 1011.9 |
| 20260510072054 | 18 | 0 | 0.0 | 3.2 | 0.00 | 4.78 | 0.00 | 97 | 1011.8 |
| 20260510071555 | 18 | 0 | 0.0 | 3.2 | 0.00 | 4.78 | 0.00 | 97 | 1011.9 |
| 20260510071050 | 18 | 69 | 0.0 | 1.6 | 0.00 | 4.78 | 0.00 | 97 | 1011.8 |
| 20260510070551 | 18 | 69 | 0.0 | 3.2 | 0.00 | 4.78 | 0.00 | 97 | 1012.0 |
| 20260510070055 | 18 | 0 | 0.0 | 3.2 | 0.00 | 4.78 | 0.00 | 97 | 1012.0 |
| 20260510065553 | 18 | 69 | 1.6 | 3.2 | 0.00 | 4.78 | 0.00 | 97 | 1012.1 |
| 20260510065057 | 18 | 0 | 0.0 | 1.6 | 0.00 | 4.78 | 0.00 | 97 | 1012.1 |
| 20260510064602 | 18 | 0 | 0.0 | 1.6 | 0.00 | 4.78 | 0.00 | 97 | 1012.1 |
| 20260510064050 | 18 | 0 | 0.0 | 1.6 | 0.00 | 4.78 | 0.00 | 97 | 1012.1 |
| 20260510063551 | 18 | 0 | 0.0 | 1.6 | 0.00 | 4.78 | 0.00 | 97 | 1012.0 |
| 20260510063053 | 18 | 69 | 0.0 | 3.2 | 0.00 | 4.78 | 0.00 | 97 | 1011.9 |
| 20260510062551 | 18 | 0 | 0.0 | 3.2 | 0.00 | 4.78 | 0.00 | 97 | 1011.9 |
| 20260510062051 | 18 | 69 | 0.0 | 3.2 | 0.00 | 4.78 | 0.00 | 97 | 1012.0 |
| 20260510061557 | 18 | 0 | 0.0 | 3.2 | 0.00 | 4.78 | 0.00 | 97 | 1012.0 |
| 20260510061051 | 18 | 126 | 1.6 | 3.2 | 0.00 | 4.78 | 0.00 | 97 | 1012.1 |
| 20260510060551 | 18 | 0 | 0.0 | 3.2 | 0.00 | 4.78 | 0.00 | 97 | 1012.1 |
| 20260510060105 | 18 | 0 | 0.0 | 3.2 | 0.00 | 4.78 | 0.00 | 97 | 1012.1 |
| 20260510055550 | 18 | 126 | 0.0 | 1.6 | 0.00 | 4.78 | 0.00 | 97 | 1012.1 |
| 20260510055053 | 19 | 0 | 0.0 | 0.0 | 0.00 | 4.78 | 0.00 | 97 | 1012.1 |
| 20260510054553 | 19 | 0 | 0.0 | 3.2 | 0.00 | 4.78 | 0.00 | 97 | 1012.2 |
| 20260510054050 | 19 | 0 | 0.0 | 3.2 | 0.00 | 4.78 | 0.00 | 97 | 1012.0 |
| 20260510053550 | 19 | 126 | 0.0 | 3.2 | 0.00 | 4.78 | 0.00 | 97 | 1011.9 |
| 20260510053052 | 19 | 0 | 0.0 | 3.2 | 0.00 | 4.78 | 0.00 | 97 | 1011.9 |
| 20260510052553 | 19 | 126 | 0.0 | 3.2 | 0.00 | 4.78 | 0.00 | 97 | 1012.0 |
| 20260510052054 | 19 | 0 | 0.0 | 3.2 | 0.00 | 4.78 | 0.00 | 97 | 1011.9 |
| 20260510051556 | 19 | 0 | 0.0 | 4.8 | 0.00 | 4.78 | 0.00 | 97 | 1011.9 |
| 20260510051054 | 19 | 126 | 0.0 | 4.8 | 0.00 | 4.78 | 0.00 | 97 | 1012.0 |
| 20260510050555 | 19 | 136 | 0.0 | 4.8 | 0.00 | 4.78 | 0.00 | 97 | 1011.9 |
| 20260510045554 | 19 | 0 | 0.0 | 3.2 | 0.00 | 4.78 | 4.78 | 97 | 1012.1 |
| 20260510045051 | 19 | 0 | 0.0 | 8.0 | 0.00 | 4.78 | 4.78 | 97 | 1012.1 |
| 20260510044619 | 19 | 0 | 1.6 | 8.0 | 0.00 | 4.78 | 4.78 | 97 | 1012.0 |
| 20260510044051 | 19 | 0 | 0.0 | 4.8 | 0.00 | 4.78 | 4.78 | 97 | 1012.1 |
| 20260510043551 | 19 | 188 | 0.0 | 9.7 | 0.00 | 4.78 | 4.78 | 97 | 1012.2 |
| 20260510043051 | 19 | 0 | 1.6 | 9.7 | 0.00 | 4.78 | 4.78 | 97 | 1012.3 |
| 20260510042553 | 19 | 143 | 0.0 | 4.8 | 0.00 | 4.78 | 4.78 | 97 | 1012.4 |
| 20260510042053 | 19 | 143 | 1.6 | 4.8 | 0.00 | 4.78 | 4.78 | 97 | 1012.4 |
| 20260510041553 | 19 | 132 | 1.6 | 8.0 | 0.00 | 4.78 | 4.78 | 97 | 1012.2 |
| 20260510041052 | 19 | 170 | 1.6 | 11.3 | 0.00 | 4.78 | 4.78 | 97 | 1012.2 |
| 20260510040551 | 19 | 139 | 1.6 | 11.3 | 0.00 | 4.78 | 4.78 | 97 | 1012.2 |
| 20260510040053 | 19 | 134 | 3.2 | 9.7 | 0.00 | 4.78 | 4.78 | 97 | 1012.0 |
| 20260510035551 | 19 | 162 | 3.2 | 11.3 | 0.00 | 4.78 | 4.78 | 97 | 1012.2 |
| 20260510035051 | 19 | 190 | 3.2 | 11.3 | 0.00 | 4.78 | 4.78 | 97 | 1012.4 |
| 20260510034551 | 19 | 190 | 3.2 | 9.7 | 0.00 | 4.78 | 4.78 | 97 | 1012.3 |
| 20260510034052 | 19 | 211 | 3.2 | 6.4 | 0.00 | 4.78 | 4.78 | 97 | 1012.6 |
| 20260510033554 | 19 | 181 | 1.6 | 6.4 | 0.00 | 4.78 | 4.78 | 97 | 1012.8 |
| 20260510033053 | 19 | 220 | 1.6 | 4.8 | 0.00 | 4.78 | 4.78 | 97 | 1012.9 |
| 20260510032555 | 19 | 194 | 1.6 | 4.8 | 0.00 | 4.78 | 4.78 | 97 | 1012.8 |
| 20260510032052 | 19 | 194 | 1.6 | 3.2 | 0.00 | 4.78 | 4.78 | 97 | 1012.8 |
| 20260510031552 | 19 | 194 | 0.0 | 4.8 | 0.00 | 4.78 | 4.78 | 97 | 1012.8 |
| 20260510031056 | 19 | 194 | 1.6 | 4.8 | 0.00 | 4.78 | 4.78 | 97 | 1012.8 |
| 20260510030554 | 19 | 194 | 0.0 | 1.6 | 0.00 | 4.78 | 4.78 | 96 | 1012.9 |
| 20260510030055 | 19 | 0 | 0.0 | 1.6 | 0.00 | 4.78 | 4.78 | 97 | 1012.9 |
| 20260510025551 | 19 | 0 | 0.0 | 4.8 | 0.00 | 4.78 | 4.78 | 97 | 1012.9 |
| 20260510025052 | 19 | 0 | 0.0 | 4.8 | 0.00 | 4.78 | 4.78 | 97 | 1013.0 |
| 20260510024553 | 19 | 0 | 1.6 | 4.8 | 0.00 | 4.78 | 4.78 | 97 | 1013.0 |
| 20260510024052 | 19 | 194 | 1.6 | 4.8 | 0.00 | 4.78 | 4.78 | 97 | 1012.8 |
| 20260510023552 | 20 | 150 | 0.0 | 4.8 | 0.00 | 4.78 | 4.78 | 97 | 1012.8 |
| 20260510023054 | 19 | 0 | 0.0 | 4.8 | 0.00 | 4.78 | 4.78 | 97 | 1012.5 |
| 20260510022552 | 20 | 120 | 0.0 | 8.0 | 0.00 | 4.78 | 4.78 | 97 | 1012.5 |
| 20260510022051 | 20 | 0 | 1.6 | 8.0 | 0.00 | 4.78 | 4.78 | 97 | 1012.4 |
| 20260510021553 | 20 | 176 | 1.6 | 8.0 | 0.00 | 4.78 | 4.78 | 97 | 1012.3 |
| 20260510021051 | 20 | 0 | 1.6 | 8.0 | 0.00 | 4.78 | 4.78 | 97 | 1012.2 |
| 20260510020551 | 20 | 184 | 1.6 | 8.0 | 0.00 | 4.78 | 4.78 | 96 | 1012.2 |
| 20260510020051 | 20 | 163 | 0.0 | 4.8 | 0.00 | 4.78 | 4.78 | 97 | 1012.3 |
| 20260510015551 | 20 | 152 | 0.0 | 4.8 | 0.00 | 4.78 | 4.78 | 97 | 1012.3 |
| 20260510015051 | 20 | 0 | 0.0 | 11.3 | 0.00 | 4.78 | 4.78 | 96 | 1012.2 |
| 20260510014553 | 20 | 176 | 1.6 | 11.3 | 0.00 | 4.78 | 4.78 | 96 | 1012.1 |
| 20260510014051 | 20 | 121 | 3.2 | 8.0 | 0.00 | 4.78 | 4.78 | 97 | 1012.1 |
| 20260510013552 | 20 | 154 | 1.6 | 9.7 | 0.03 | 4.78 | 4.78 | 97 | 1012.0 |
| 20260510013054 | 20 | 123 | 1.6 | 9.7 | 0.05 | 4.78 | 4.78 | 97 | 1011.9 |
| 20260510012552 | 20 | 138 | 1.6 | 8.0 | 0.05 | 4.78 | 4.78 | 97 | 1012.0 |
| 20260510012052 | 20 | 133 | 1.6 | 12.9 | 0.05 | 4.78 | 4.78 | 97 | 1012.0 |
| 20260510011556 | 20 | 118 | 3.2 | 14.5 | 0.05 | 4.78 | 4.78 | 97 | 1011.9 |
| 20260510011051 | 20 | 130 | 3.2 | 14.5 | 0.05 | 4.78 | 4.78 | 97 | 1011.8 |
| 20260510010551 | 20 | 124 | 1.6 | 11.3 | 0.05 | 4.78 | 4.78 | 97 | 1011.8 |
| 20260510010126 | 20 | 173 | 3.2 | 11.3 | 0.05 | 4.78 | 4.78 | 97 | 1011.8 |
| 20260510005552 | 20 | 151 | 3.2 | 11.3 | 0.05 | 4.78 | 4.78 | 97 | 1011.9 |
| 20260510005051 | 20 | 151 | 1.6 | 9.7 | 0.05 | 4.78 | 4.78 | 97 | 1011.9 |
| 20260510004554 | 20 | 174 | 3.2 | 16.1 | 0.05 | 4.78 | 4.78 | 97 | 1011.9 |
| 20260510004051 | 20 | 158 | 4.8 | 16.1 | 0.05 | 4.78 | 4.78 | 97 | 1011.8 |
| 20260510003552 | 20 | 182 | 3.2 | 11.3 | 0.03 | 4.75 | 4.75 | 97 | 1011.9 |
| 20260510003059 | 20 | 124 | 1.6 | 8.0 | 0.03 | 4.72 | 4.72 | 97 | 1011.9 |
| 20260510002551 | 20 | 162 | 1.6 | 8.0 | 0.03 | 4.72 | 4.72 | 97 | 1012.0 |
| 20260510002051 | 20 | 117 | 1.6 | 6.4 | 0.05 | 4.72 | 4.72 | 97 | 1011.9 |
| 20260510001554 | 20 | 207 | 0.0 | 4.8 | 0.08 | 4.72 | 4.72 | 97 | 1012.0 |
| 20260510001052 | 20 | 159 | 1.6 | 6.4 | 0.10 | 4.72 | 4.72 | 97 | 1011.8 |
| 20260510000551 | 20 | 182 | 0.0 | 8.0 | 0.13 | 4.72 | 4.72 | 97 | 1011.9 |
| 20260510000054 | 20 | 154 | 0.0 | 8.0 | 0.13 | 4.72 | 4.72 | 96 | 1011.8 |
| 20260509235551 | 20 | 148 | 0.0 | 8.0 | 0.15 | 4.75 | 4.72 | 97 | 1011.8 |
| 20260509235051 | 20 | 171 | 1.6 | 9.7 | 0.15 | 4.75 | 4.72 | 97 | 1011.9 |
| 20260509234613 | 20 | 154 | 3.2 | 9.7 | 0.15 | 4.75 | 4.72 | 97 | 1011.8 |
| 20260509234051 | 20 | 139 | 1.6 | 9.7 | 0.15 | 4.75 | 4.72 | 96 | 1011.7 |
| 20260509233552 | 20 | 138 | 3.2 | 9.7 | 0.15 | 4.75 | 4.72 | 96 | 1011.8 |
| 20260509233057 | 20 | 129 | 3.2 | 9.7 | 0.13 | 4.72 | 4.70 | 96 | 1011.8 |
| 20260509232554 | 20 | 124 | 1.6 | 9.7 | 0.10 | 4.70 | 4.67 | 96 | 1011.9 |
| 20260509232051 | 20 | 144 | 0.0 | 6.4 | 0.10 | 4.70 | 4.67 | 97 | 1012.2 |
| 20260509231555 | 20 | 201 | 1.6 | 6.4 | 0.08 | 4.67 | 4.65 | 97 | 1012.2 |
| 20260509231052 | 20 | 163 | 1.6 | 6.4 | 0.05 | 4.65 | 4.62 | 97 | 1012.0 |
| 20260509230551 | 20 | 131 | 0.0 | 4.8 | 0.03 | 4.62 | 4.60 | 97 | 1012.1 |
| 20260509230053 | 20 | 0 | 0.0 | 6.4 | 0.03 | 4.62 | 4.60 | 97 | 1012.1 |
| 20260509225553 | 20 | 0 | 3.2 | 11.3 | 0.00 | 4.65 | 4.57 | 97 | 1012.0 |
| 20260509225051 | 20 | 184 | 1.6 | 11.3 | 0.03 | 4.65 | 4.57 | 97 | 1011.9 |
| 20260509224553 | 20 | 190 | 3.2 | 11.3 | 0.03 | 4.65 | 4.57 | 97 | 1011.9 |
| 20260509224054 | 20 | 128 | 1.6 | 8.0 | 0.03 | 4.65 | 4.57 | 97 | 1011.8 |
| 20260509223552 | 20 | 146 | 1.6 | 8.0 | 0.05 | 4.65 | 4.57 | 97 | 1011.8 |
| 20260509223052 | 20 | 202 | 1.6 | 6.4 | 0.05 | 4.65 | 4.57 | 97 | 1011.7 |
| 20260509222554 | 20 | 192 | 1.6 | 6.4 | 0.05 | 4.65 | 4.57 | 97 | 1011.5 |
| 20260509222051 | 20 | 146 | 1.6 | 6.4 | 0.05 | 4.65 | 4.57 | 97 | 1011.2 |
| 20260509221554 | 20 | 144 | 1.6 | 4.8 | 0.05 | 4.65 | 4.57 | 97 | 1011.2 |
| 20260509221052 | 20 | 144 | 1.6 | 4.8 | 0.05 | 4.65 | 4.57 | 97 | 1011.1 |
| 20260509220551 | 20 | 0 | 0.0 | 3.2 | 0.05 | 4.65 | 4.57 | 97 | 1011.0 |
| 20260509215551 | 20 | 209 | 0.0 | 4.8 | 0.05 | 5.08 | 4.57 | 97 | 1011.5 |
| 20260509215052 | 20 | 217 | 0.0 | 12.9 | 0.03 | 5.05 | 4.55 | 97 | 1011.5 |
| 20260509214554 | 20 | 249 | 1.6 | 12.9 | 0.03 | 5.05 | 4.55 | 97 | 1011.5 |
| 20260509214051 | 20 | 202 | 3.2 | 11.3 | 0.03 | 5.05 | 4.55 | 97 | 1011.7 |
| 20260509213551 | 20 | 192 | 1.6 | 11.3 | 0.00 | 5.03 | 4.52 | 97 | 1011.6 |
| 20260509213057 | 20 | 165 | 1.6 | 11.3 | 0.00 | 5.03 | 4.52 | 97 | 1011.4 |
| 20260509212551 | 20 | 192 | 3.2 | 16.1 | 0.00 | 5.03 | 4.52 | 97 | 1011.0 |
| 20260509212051 | 20 | 160 | 4.8 | 16.1 | 0.00 | 5.03 | 4.52 | 97 | 1011.1 |
| 20260509211556 | 20 | 187 | 3.2 | 12.9 | 0.00 | 5.03 | 4.52 | 97 | 1011.1 |
| 20260509211055 | 20 | 198 | 4.8 | 14.5 | 0.00 | 5.03 | 4.52 | 97 | 1010.9 |
| 20260509210552 | 20 | 175 | 1.6 | 14.5 | 0.00 | 5.03 | 4.52 | 97 | 1010.9 |
| 20260509210052 | 20 | 163 | 4.8 | 12.9 | 0.03 | 5.03 | 4.52 | 97 | 1010.9 |
| 20260509205551 | 20 | 199 | 3.2 | 12.9 | 0.05 | 6.22 | 4.52 | 97 | 1010.7 |
| 20260509205054 | 20 | 97 | 1.6 | 12.9 | 0.08 | 6.22 | 4.52 | 97 | 1010.7 |
| 20260509204601 | 20 | 127 | 3.2 | 12.9 | 0.10 | 6.22 | 4.52 | 97 | 1010.7 |
| 20260509204052 | 20 | 146 | 3.2 | 9.7 | 0.13 | 6.22 | 4.52 | 97 | 1010.9 |
| 20260509203552 | 20 | 136 | 3.2 | 9.7 | 0.15 | 6.22 | 4.52 | 97 | 1010.7 |
| 20260509203138 | 20 | 167 | 1.6 | 6.4 | 0.18 | 6.22 | 4.52 | 97 | 1011.1 |
| 20260509202551 | 19 | 130 | 3.2 | 6.4 | 0.18 | 6.22 | 4.52 | 97 | 1011.4 |